Location: Chemnitz
(49.5500°N, 11.5830°E)
Time: 12:59:06
(UTC+01:00)

ISS - Pass Details

Date: 13 January 2018
Orbit: 402 x 407 km, 51.6° (Epoch: 18 January)

Event Time Altitude Azimuth Distance (km) Brightness Sun altitude
Exits shadow 05:33:54 31° 136° (SE) 736 -2.1 -23.9°
Drops below altitude 10° 05:35:48 10° 124° (SE) 1,463 -0.2 -23.6°
Sets 05:37:54 0° 121° (ESE) 2,322 1.1 -23.3°
